STARLINK-2318 (48025 NORAD) Tracking and Keplerian Element Data

This shows tracking and keplerian element data for the satellite.

Feedback or suggestion? Click here.




ElementValue
Catalog48025
NameSTARLINK-2318
Epoch Orbit198
Epoch Day173.91668981
Epoch Year2021
RAAN114.2608
Inclination53.0459
Eccentricity0.0002218
Argument of Perigee24.4384
Mean Anonmoly141.44
Mean Motion15.73207367
Decay Rate8.811E-05
L11 48025U 21024BA 21173.91668981 .00008811 00000-0 67105-4 0 9991
L22 48025 53.0459 114.2608 0002218 24.4384 141.4400 15.73207367 1980

Live tracking and technical data element details for STARLINK-2318 (NORAD 48025). STARLINK-2318 can be tracked NOW for your location showing map with azimuth and elevation plus other details from your city location.

Track the satellite on the map from your city or location and see movement details for azimuth, elevation, latitude, longitude, range, height, and movement on the map or in text.







IsCatalogInMostPopularTable: catalog: 48025, numindb: 42
Update: records affected: 1



GetName: 48025 STARLINK-2318

Hit Count: updated at: Thu, 24 Jun 2021 04:19:22 GMT